QPF
0.00 0.00 0.00 0.00 0.00 0.00 0.00 0.00 0.00 0.00 0.00 0.00 0.00 0.00 0.00 0.00 0.00 0.00 0.00 0.01 0.01 0.00 0.00 0.00 0.00 0.00 0.00 0.00 0.00 0.00 0.00 0.00 0.00 0.00 0.00 0.00 0.00 0.02 0.01 0.03 0.02 0.03 0.14 0.07 0.23 0.10 0.10 0.07 0.03 0.01 0.05 0.06 0.00 0.02 0.04 0.03 0.08 0.02 0.02 0.02 0.01 0.00 0.00
0.00 0.00 0.00 0.00 0.00 0.00 0.00 0.00 0.00 0.00 0.00 0.00 0.00 0.00 0.00 0.00 0.00 0.00 0.00 0.02 0.05 0.00 0.08 0.00 0.00 0.00 0.00 0.00 0.00 0.00 0.00 0.00 0.00 0.00 0.00 0.00 0.00 0.00 0.00 0.01 0.01 0.01 0.12 0.27 0.53 0.13 0.18 0.05 0.05 0.02 0.00 0.01 0.01 0.02 0.04 0.03 0.08 0.13 0.08 0.03 0.05 0.02 0.02
0.00 0.00 0.00 0.00 0.00 0.00 0.00 0.00 0.00 0.00 0.00 0.00 0.00 0.00 0.00 0.00 0.00 0.00 0.00 0.00 0.01 0.02 0.03 0.00 0.00 0.00 0.00 0.00 0.00 0.00 0.00 0.00 0.00 0.00 0.00 0.00 0.00 0.00 0.00 0.00 0.02 0.03 0.04 0.17 0.28 0.37 0.07 0.11 0.17 0.04 0.20 0.08 0.12 0.11 0.10 0.07 0.12 0.17 0.04 0.05 0.06 0.03 0.03
0.00 0.00 0.00 0.00 0.00 0.00 0.00 0.00 0.00 0.00 0.00 0.00 0.00 0.00 0.04 0.00 0.00 0.00 0.06 0.01 0.25 0.04 0.06 0.01 0.01 0.00 0.00 0.00 0.00 0.00 0.00 0.00 0.00 0.00 0.00 0.00 0.00 0.00 0.00 0.02 0.02 0.02 0.04 0.03 0.08 0.28 0.36 0.31 0.61 0.28 0.23 0.15 0.06 0.05 0.11 0.24 0.54 0.43 0.13 0.04 0.01 0.02 0.02
0.00 0.00 0.00 0.00 0.00 0.00 0.00 0.00 0.00 0.00 0.00 0.00 0.00 0.00 0.01 0.01 0.01 0.00 0.03 0.06 0.06 0.02 0.02 0.02 0.00 0.00 0.00 0.00 0.00 0.00 0.00 0.00 0.00 0.00 0.00 0.00 0.00 0.00 0.00 0.00 0.00 0.00 0.00 0.01 0.02 0.04 0.17 0.27 0.31 0.21 0.38 0.43 0.31 0.20 0.18 0.09 0.05 0.07 0.09 0.05 0.06 0.05 0.02
0.00 0.00 0.00 0.00 0.00 0.00 0.00 0.00 0.00 0.00 0.00 0.00 0.00 0.00 0.00 0.00 0.00 0.00 0.01 0.10 0.03 0.01 0.01 0.00 0.00 0.00 0.00 0.00 0.00 0.00 0.00 0.00 0.00 0.00 0.00 0.00 0.00 0.00 0.00 0.00 0.00 0.00 0.00 0.00 0.00 0.04 0.04 0.01 0.14 0.57 0.26 0.55 0.45 0.23 0.13 0.17 0.07 0.22 0.03 0.03 0.05 0.00 0.00
0.00 0.00 0.00 0.00 0.00 0.00 0.00 0.00 0.00 0.00 0.00 0.00 0.00 0.00 0.00 0.00 0.00 0.00 0.06 0.03 0.05 0.01 0.00 0.00 0.00 0.00 0.00 0.00 0.00 0.00 0.00 0.00 0.00 0.00 0.00 0.00 0.00 0.00 0.00 0.00 0.00 0.00 0.00 0.00 0.00 0.00 0.00 0.00 0.08 0.13 0.25 0.24 0.16 0.32 0.29 0.10 0.06 0.10 0.03 0.02 0.01 0.01 0.01
0.00 0.00 0.00 0.00 0.00 0.00 0.00 0.00 0.00 0.00 0.00 0.00 0.00 0.00 0.01 0.00 0.00 0.00 0.06 0.04 0.06 0.01 0.00 0.00 0.00 0.00 0.00 0.00 0.00 0.00 0.00 0.00 0.00 0.00 0.00 0.00 0.00 0.00 0.00 0.00 0.00 0.00 0.00 0.00 0.00 0.00 0.00 0.00 0.09 0.21 0.23 0.25 0.07 0.26 0.46 0.32 0.44 0.06 0.08 0.04 0.01 0.01 0.02
0.00 0.00 0.00 0.00 0.00 0.00 0.00 0.00 0.00 0.00 0.00 0.00 0.00 0.00 0.01 0.00 0.00 0.00 0.00 0.01 0.03 0.01 0.00 0.00 0.00 0.00 0.00 0.00 0.00 0.00 0.00 0.00 0.00 0.00 0.00 0.00 0.00 0.00 0.00 0.00 0.00 0.00 0.00 0.00 0.00 0.00 0.00 0.01 0.06 0.07 0.11 0.08 0.17 0.21 0.46 0.09 0.45 0.44 0.05 0.04 0.01 0.01 0.01
0.00 0.00 0.00 0.00 0.00 0.00 0.00 0.00 0.00 0.00 0.00 0.00 0.00 0.00 0.01 0.00 0.01 0.00 0.00 0.05 0.01 0.00 0.00 0.00 0.00 0.00 0.00 0.00 0.00 0.00 0.00 0.00 0.00 0.00 0.00 0.00 0.00 0.00 0.00 0.00 0.00 0.00 0.00 0.00 0.00 0.00 0.00 0.00 0.00 0.00 0.01 0.10 0.04 0.13 0.14 0.25 0.10 0.11 0.08 0.02 0.01 0.02 0.03
0.01 0.00 0.01 0.00 0.00 0.00 0.00 0.00 0.00 0.00 0.00 0.00 0.00 0.00 0.00 0.00 0.01 0.02 0.06 0.00 0.01 0.00 0.01 0.00 0.00 0.00 0.00 0.00 0.00 0.00 0.00 0.00 0.00 0.00 0.00 0.00 0.00 0.00 0.00 0.00 0.00 0.00 0.00 0.00 0.00 0.00 0.00 0.00 0.00 0.00 0.00 0.00 0.01 0.02 0.02 0.18 0.13 0.01 0.01 0.01 0.01 0.02 0.03
0.00 0.00 0.00 0.00 0.00 0.00 0.00 0.00 0.00 0.00 0.00 0.00 0.00 0.00 0.02 0.00 0.00 0.03 0.00 0.00 0.00 0.03 0.00 0.00 0.00 0.00 0.00 0.00 0.00 0.00 0.00 0.00 0.00 0.00 0.00 0.00 0.00 0.00 0.00 0.00 0.00 0.00 0.00 0.00 0.00 0.00 0.00 0.00 0.00 0.00 0.00 0.00 0.00 0.00 0.00 0.01 0.06 0.04 0.00 0.01 0.00 0.01 0.02
0.00 0.00 0.00 0.00 0.00 0.00 0.00 0.00 0.00 0.00 0.00 0.00 0.00 0.00 0.00 0.00 0.01 0.09 0.01 0.01 0.03 0.00 0.01 0.00 0.00 0.00 0.00 0.00 0.00 0.00 0.00 0.00 0.00 0.00 0.00 0.00 0.00 0.00 0.00 0.00 0.00 0.00 0.00 0.00 0.00 0.00 0.00 0.00 0.00 0.00 0.00 0.00 0.00 0.00 0.00 0.00 0.00 0.02 0.03 0.00 0.00 0.00 0.01
0.00 0.00 0.00 0.00 0.00 0.00 0.00 0.00 0.00 0.00 0.00 0.00 0.00 0.00 0.00 0.00 0.00 0.00 0.00 0.02 0.04 0.02 0.00 0.00 0.00 0.00 0.00 0.00 0.00 0.00 0.00 0.00 0.00 0.00 0.00 0.00 0.00 0.00 0.00 0.00 0.00 0.00 0.00 0.00 0.00 0.00 0.00 0.00 0.00 0.00 0.00 0.00 0.00 0.00 0.00 0.00 0.00 0.00 0.00 0.02 0.01 0.00 0.00
0.00 0.00 0.00 0.00 0.00 0.00 0.00 0.00 0.00 0.00 0.00 0.00 0.00 0.00 0.00 0.00 0.00 0.00 0.01 0.02 0.02 0.02 0.00 0.00 0.00 0.00 0.00 0.00 0.00 0.00 0.00 0.00 0.00 0.00 0.00 0.00 0.00 0.00 0.00 0.00 0.00 0.00 0.00 0.00 0.00 0.00 0.00 0.00 0.00 0.00 0.00 0.00 0.00 0.00 0.00 0.00 0.00 0.00 0.00 0.00 0.01 0.02 0.01
0.00 0.00 0.00 0.00 0.00 0.00 0.00 0.00 0.00 0.00 0.00 0.00 0.00 0.00 0.00 0.00 0.01 0.01 0.02 0.02 0.01 0.00 0.00 0.00 0.00 0.00 0.00 0.00 0.00 0.00 0.00 0.00 0.00 0.00 0.00 0.00 0.00 0.00 0.00 0.00 0.00 0.00 0.00 0.00 0.00 0.00 0.00 0.00 0.00 0.00 0.00 0.00 0.00 0.00 0.00 0.00 0.00 0.00 0.00 0.00 0.00 0.01 0.01
0.00 0.00 0.00 0.00 0.00 0.00 0.00 0.00 0.00 0.00 0.00 0.00 0.00 0.00 0.00 0.00 0.01 0.01 0.01 0.03 0.00 0.00 0.00 0.00 0.00 0.00 0.00 0.00 0.00 0.00 0.00 0.00 0.00 0.00 0.00 0.00 0.00 0.00 0.00 0.00 0.00 0.00 0.00 0.00 0.00 0.00 0.00 0.00 0.00 0.00 0.00 0.00 0.00 0.00 0.00 0.00 0.00 0.01 0.01 0.00 0.00 0.00 0.01
0.00 0.00 0.00 0.00 0.00 0.00 0.00 0.01 0.00 0.00 0.00 0.00 0.00 0.00 0.00 0.00 0.00 0.05 0.01 0.07 0.00 0.00 0.00 0.00 0.00 0.00 0.00 0.00 0.00 0.00 0.00 0.00 0.00 0.00 0.00 0.00 0.00 0.00 0.00 0.00 0.00 0.00 0.00 0.00 0.00 0.00 0.00 0.00 0.00 0.00 0.00 0.00 0.00 0.00 0.00 0.00 0.00 0.00 0.05 0.04 0.00 0.00 0.00
0.00 0.00 0.00 0.00 0.00 0.00 0.00 0.00 0.00 0.00 0.00 0.00 0.00 0.00 0.00 0.00 0.00 0.00 0.00 0.00 0.00 0.00 0.00 0.00 0.00 0.00 0.00 0.00 0.00 0.00 0.00 0.00 0.00 0.00 0.00 0.00 0.00 0.00 0.00 0.00 0.00 0.00 0.00 0.00 0.00 0.00 0.00 0.00 0.00 0.00 0.00 0.00 0.00 0.00 0.00 0.00 0.00 0.00 0.00 0.01 0.01 0.00 0.00
0.00 0.00 0.00 0.00 0.00 0.00 0.00 0.00 0.00 0.00 0.00 0.00 0.00 0.00 0.00 0.00 0.00 0.00 0.00 0.00 0.00 0.00 0.00 0.00 0.00 0.00 0.00 0.00 0.00 0.00 0.00 0.00 0.00 0.00 0.00 0.00 0.00 0.00 0.00 0.00 0.00 0.00 0.00 0.00 0.00 0.00 0.00 0.00 0.00 0.00 0.00 0.00 0.00 0.00 0.00 0.00 0.00 0.00 0.00 0.00 0.01 0.04 0.08
0.00 0.00 0.00 0.00 0.00 0.00 0.00 0.00 0.00 0.00 0.00 0.00 0.00 0.00 0.00 0.00 0.00 0.00 0.01 0.00 0.00 0.00 0.00 0.00 0.00 0.00 0.00 0.00 0.00 0.00 0.00 0.00 0.00 0.00 0.00 0.00 0.00 0.00 0.00 0.00 0.00 0.00 0.00 0.00 0.00 0.00 0.00 0.00 0.00 0.00 0.00 0.00 0.00 0.00 0.00 0.00 0.00 0.00 0.00 0.00 0.10 0.18 0.30
0.00 0.01 0.00 0.00 0.00 0.00 0.00 0.00 0.00 0.00 0.00 0.00 0.00 0.00 0.00 0.00 0.00 0.00 0.00 0.00 0.00 0.00 0.00 0.00 0.00 0.00 0.00 0.00 0.00 0.00 0.00 0.00 0.00 0.00 0.00 0.00 0.00 0.00 0.00 0.00 0.00 0.00 0.00 0.00 0.00 0.00 0.00 0.00 0.00 0.00 0.00 0.00 0.00 0.00 0.00 0.00 0.00 0.00 0.00 0.00 0.00 0.02 0.22
0.00 0.00 0.00 0.00 0.00 0.01 0.00 0.00 0.00 0.00 0.00 0.00 0.00 0.00 0.02 0.00 0.00 0.00 0.00 0.00 0.00 0.00 0.00 0.00 0.00 0.00 0.00 0.00 0.00 0.00 0.00 0.00 0.00 0.00 0.00 0.00 0.00 0.00 0.00 0.00 0.00 0.00 0.00 0.00 0.00 0.00 0.00 0.00 0.00 0.00 0.00 0.00 0.00 0.00 0.00 0.00 0.00 0.00 0.00 0.00 0.00 0.00 0.01
0.01 0.00 0.00 0.00 0.01 0.01 0.00 0.00 0.00 0.00 0.00 0.00 0.00 0.00 0.00 0.00 0.00 0.00 0.00 0.00 0.00 0.00 0.00 0.00 0.00 0.00 0.00 0.02 0.00 0.00 0.00 0.00 0.00 0.00 0.00 0.00 0.00 0.00 0.00 0.00 0.00 0.00 0.00 0.00 0.00 0.00 0.00 0.00 0.00 0.00 0.00 0.00 0.00 0.00 0.00 0.00 0.00 0.00 0.00 0.00 0.00 0.00 0.00
0.00 0.00 0.00 0.00 0.03 0.00 0.00 0.00 0.00 0.00 0.00 0.00 0.00 0.00 0.01 0.00 0.00 0.00 0.00 0.00 0.00 0.00 0.00 0.00 0.00 0.00 0.00 0.00 0.00 0.00 0.00 0.00 0.00 0.00 0.00 0.00 0.00 0.00 0.00 0.00 0.00 0.00 0.00 0.00 0.00 0.00 0.00 0.00 0.00 0.00 0.00 0.00 0.00 0.00 0.00 0.00 0.00 0.00 0.00 0.00 0.00 0.00 0.00
0.01 0.07 0.00 0.00 0.01 0.00 0.00 0.00 0.00 0.00 0.00 0.00 0.00 0.00 0.00 0.00 0.00 0.00 0.00 0.00 0.00 0.00 0.00 0.00 0.00 0.00 0.00 0.00 0.00 0.00 0.00 0.00 0.00 0.00 0.00 0.00 0.00 0.00 0.00 0.00 0.00 0.00 0.00 0.00 0.00 0.00 0.00 0.00 0.00 0.00 0.00 0.00 0.00 0.00 0.00 0.00 0.00 0.00 0.00 0.00 0.00 0.00 0.00
0.00 0.00 0.02 0.00 0.00 0.01 0.00 0.00 0.00 0.00 0.00 0.04 0.00 0.00 0.00 0.00 0.00 0.00 0.00 0.00 0.00 0.00 0.00 0.00 0.00 0.00 0.00 0.00 0.00 0.00 0.00 0.00 0.00 0.00 0.00 0.00 0.00 0.00 0.00 0.00 0.00 0.00 0.00 0.00 0.00 0.00 0.00 0.00 0.00 0.00 0.00 0.00 0.00 0.00 0.00 0.00 0.00 0.00 0.00 0.00 0.00 0.00 0.00
0.00 0.00 0.00 0.00 0.03 0.00 0.00 0.00 0.00 0.00 0.00 0.01 0.00 0.00 0.00 0.00 0.00 0.00 0.00 0.00 0.00 0.00 0.00 0.00 0.00 0.00 0.00 0.00 0.00 0.00 0.00 0.00 0.00 0.00 0.00 0.00 0.00 0.00 0.00 0.00 0.00 0.00 0.00 0.00 0.00 0.00 0.00 0.00 0.00 0.00 0.00 0.00 0.00 0.00 0.00 0.00 0.00 0.00 0.00 0.00 0.00 0.00 0.00
0.00 0.00 0.02 0.00 0.00 0.00 0.00 0.00 0.00 0.00 0.00 0.00 0.00 0.00 0.00 0.00 0.00 0.00 0.00 0.00 0.00 0.00 0.00 0.00 0.00 0.00 0.00 0.00 0.00 0.00 0.00 0.00 0.00 0.00 0.00 0.00 0.00 0.00 0.00 0.00 0.00 0.00 0.00 0.00 0.00 0.00 0.00 0.00 0.00 0.00 0.00 0.00 0.00 0.00 0.00 0.00 0.00 0.00 0.00 0.00 0.00 0.00 0.00
0.00 0.00 0.00 0.00 0.00 0.00 0.00 0.00 0.00 0.00 0.00 0.00 0.00 0.00 0.00 0.00 0.00 0.00 0.00 0.00 0.00 0.00 0.00 0.00 0.00 0.00 0.00 0.00 0.00 0.00 0.00 0.00 0.00 0.00 0.00 0.00 0.00 0.00 0.00 0.00 0.00 0.00 0.00 0.00 0.00 0.00 0.00 0.00 0.00 0.00 0.00 0.00 0.00 0.00 0.00 0.00 0.00 0.00 0.00 0.00 0.00 0.00 0.00
0.00 0.00 0.00 0.00 0.00 0.00 0.00 0.00 0.00 0.00 0.00 0.00 0.00 0.00 0.00 0.00 0.00 0.00 0.00 0.00 0.00 0.00 0.00 0.00 0.00 0.00 0.00 0.00 0.00 0.00 0.00 0.00 0.00 0.00 0.00 0.00 0.00 0.00 0.00 0.00 0.00 0.00 0.00 0.00 0.00 0.00 0.00 0.00 0.00 0.00 0.00 0.00 0.00 0.00 0.00 0.00 0.00 0.00 0.00 0.00 0.00 0.00 0.00
0.00 0.00 0.01 0.00 0.00 0.00 0.00 0.00 0.00 0.00 0.00 0.00 0.00 0.00 0.00 0.00 0.00 0.00 0.00 0.00 0.00 0.00 0.00 0.00 0.00 0.00 0.00 0.00 0.00 0.00 0.00 0.00 0.00 0.00 0.00 0.00 0.00 0.00 0.00 0.00 0.00 0.00 0.00 0.00 0.00 0.00 0.00 0.00 0.00 0.00 0.00 0.00 0.00 0.00 0.00 0.00 0.00 0.00 0.00 0.00 0.00 0.00 0.00
0.00 0.00 0.00 0.00 0.00 0.00 0.00 0.00 0.00 0.00 0.00 0.00 0.00 0.00 0.00 0.00 0.00 0.00 0.00 0.00 0.00 0.00 0.00 0.00 0.00 0.00 0.00 0.00 0.00 0.00 0.00 0.00 0.00 0.00 0.00 0.00 0.00 0.00 0.00 0.00 0.00 0.00 0.00 0.00 0.00 0.00 0.00 0.00 0.00 0.00 0.00 0.00 0.00 0.00 0.00 0.00 0.00 0.00 0.00 0.00 0.00 0.00 0.00
0.01 0.02 0.00 0.01 0.04 0.05 0.00 0.00 0.00 0.00 0.00 0.00 0.00 0.00 0.00 0.00 0.00 0.00 0.00 0.00 0.00 0.00 0.00 0.00 0.00 0.00 0.00 0.00 0.00 0.00 0.00 0.00 0.00 0.00 0.00 0.00 0.00 0.00 0.00 0.00 0.00 0.00 0.00 0.00 0.00 0.00 0.00 0.00 0.00 0.00 0.00 0.00 0.00 0.00 0.00 0.00 0.00 0.00 0.00 0.00 0.00 0.00 0.00
0.02 0.00 0.01 0.03 0.01 0.00 0.00 0.00 0.00 0.00 0.00 0.00 0.00 0.00 0.00 0.00 0.00 0.00 0.00 0.00 0.00 0.00 0.00 0.00 0.00 0.00 0.00 0.00 0.00 0.00 0.00 0.00 0.00 0.00 0.00 0.00 0.00 0.00 0.00 0.00 0.00 0.00 0.00 0.00 0.00 0.00 0.00 0.00 0.00 0.00 0.00 0.00 0.00 0.00 0.00 0.00 0.00 0.00 0.00 0.00 0.00 0.00 0.00
0.01 0.00 0.00 0.03 0.02 0.01 0.01 0.01 0.00 0.00 0.00 0.00 0.00 0.00 0.00 0.00 0.00 0.00 0.00 0.00 0.00 0.00 0.00 0.00 0.00 0.00 0.00 0.00 0.00 0.00 0.00 0.00 0.00 0.00 0.00 0.00 0.00 0.00 0.00 0.00 0.00 0.00 0.00 0.00 0.00 0.00 0.00 0.00 0.00 0.00 0.00 0.00 0.00 0.00 0.00 0.00 0.00 0.00 0.00 0.00 0.00 0.00 0.00
0.01 0.00 0.00 0.00 0.01 0.01 0.00 0.00 0.00 0.00 0.00 0.00 0.00 0.00 0.00 0.00 0.00 0.00 0.00 0.00 0.00 0.00 0.00 0.00 0.00 0.00 0.00 0.00 0.00 0.00 0.00 0.00 0.00 0.00 0.00 0.00 0.00 0.00 0.00 0.00 0.00 0.00 0.00 0.00 0.00 0.00 0.00 0.00 0.00 0.00 0.00 0.00 0.00 0.00 0.00 0.00 0.00 0.00 0.00 0.00 0.00 0.00 0.00
MSLP
1008.76 1009.16 1008.24 1008.32 1008.28 1013.32 1009.24 1009.76 1011.76 1009.76 1006.48 1007.36 1010.08 1009.40 1008.64 1009.44 1010.72 1012.04 1008.16 1014.48 1014.20 1013.36 1012.00 1011.88 1011.60 1012.08 1012.52 1012.36 1012.96 1013.00 1013.00 1012.88 1012.92 1013.12 1012.60 1011.84 1011.36 1012.56 1012.20 1012.16 1012.00 1012.48 1012.60 1012.76 1012.92 1013.08 1012.96 1012.92 1012.92 1012.88 1012.88 1013.12 1013.76 1014.48 1014.60 1014.80 1015.12 1015.04 1015.20 1015.32 1015.52 1015.52 1015.72
1009.08 1007.68 1007.64 1008.16 1008.12 1008.20 1009.36 1011.52 1009.40 1006.88 1005.72 1006.20 1009.20 1011.96 1010.76 1011.40 1013.20 1011.04 1009.64 1014.60 1016.64 1015.04 1018.60 1012.12 1012.36 1012.76 1013.24 1013.40 1013.60 1013.80 1013.92 1013.48 1013.92 1013.92 1014.00 1013.36 1012.60 1011.84 1011.56 1011.92 1012.16 1012.40 1013.08 1013.72 1014.32 1014.20 1012.92 1012.96 1013.20 1013.44 1013.16 1013.08 1013.36 1013.80 1013.88 1014.48 1014.88 1015.20 1015.12 1015.28 1015.36 1015.68 1015.64
1009.52 1008.76 1009.44 1010.00 1008.40 1006.92 1008.84 1008.68 1005.88 1009.76 1012.24 1012.80 1010.52 1012.36 1014.08 1013.60 1013.72 1011.52 1009.96 1011.48 1015.12 1013.92 1015.64 1013.52 1013.52 1013.52 1013.84 1014.40 1014.56 1014.52 1014.80 1014.76 1014.80 1014.64 1014.40 1013.84 1012.80 1012.16 1011.72 1011.56 1011.88 1012.44 1012.56 1012.68 1013.92 1013.56 1012.76 1012.88 1013.68 1013.16 1013.60 1013.24 1013.60 1013.56 1013.92 1014.44 1014.88 1015.16 1015.04 1015.08 1015.16 1015.48 1015.28
1009.48 1010.04 1010.32 1013.40 1011.44 1008.56 1007.84 1007.64 1008.96 1006.68 1007.48 1009.68 1012.72 1011.32 1010.72 1008.96 1012.48 1011.56 1013.88 1013.76 1017.04 1013.64 1014.24 1012.40 1014.04 1014.04 1014.32 1014.96 1015.12 1015.16 1015.16 1015.40 1015.48 1015.32 1014.92 1014.64 1014.20 1013.32 1012.04 1012.44 1012.28 1012.12 1012.08 1011.60 1012.00 1012.76 1013.12 1013.28 1013.84 1014.48 1014.44 1014.00 1014.36 1014.28 1014.80 1015.40 1015.80 1015.92 1016.04 1015.40 1015.08 1015.32 1014.84
1009.76 1012.16 1010.68 1011.04 1010.24 1011.20 1010.76 1010.36 1009.96 1008.96 1008.20 1006.20 1008.36 1008.56 1010.08 1010.96 1011.36 1010.80 1013.88 1016.68 1018.00 1016.36 1014.16 1014.24 1014.56 1014.52 1014.72 1015.24 1016.04 1015.88 1015.80 1015.60 1015.56 1015.68 1015.52 1015.20 1014.80 1013.96 1013.48 1012.72 1012.80 1012.68 1012.44 1012.12 1012.04 1012.28 1013.08 1013.32 1013.36 1013.64 1014.08 1014.48 1014.64 1014.76 1015.00 1015.24 1015.40 1015.68 1015.60 1014.96 1015.24 1015.20 1014.96
1012.44 1010.20 1008.64 1010.08 1010.76 1009.44 1008.80 1009.76 1010.40 1008.96 1009.92 1011.36 1012.96 1012.84 1008.20 1008.32 1009.52 1011.40 1012.60 1016.08 1017.80 1016.60 1014.64 1014.28 1014.56 1014.52 1014.68 1014.96 1015.48 1015.96 1016.08 1016.20 1016.12 1016.00 1016.04 1015.96 1015.60 1014.80 1014.20 1013.88 1013.72 1014.00 1013.52 1012.72 1012.44 1012.52 1012.64 1013.12 1013.84 1014.16 1014.16 1014.40 1015.04 1015.48 1015.64 1014.96 1014.40 1015.04 1014.84 1014.48 1014.76 1014.32 1014.36
1010.40 1010.64 1010.00 1009.24 1009.36 1009.56 1009.52 1008.96 1009.28 1007.92 1008.04 1009.08 1010.80 1013.76 1010.92 1009.56 1008.20 1006.44 1010.20 1016.36 1019.28 1015.72 1014.08 1014.12 1014.40 1014.52 1014.84 1015.00 1015.24 1016.00 1016.28 1016.12 1015.96 1016.08 1016.04 1015.92 1016.04 1016.12 1015.56 1015.04 1014.80 1014.56 1014.44 1014.04 1013.80 1013.68 1013.64 1014.04 1014.32 1014.44 1014.72 1014.72 1014.92 1015.52 1015.04 1013.92 1014.44 1014.24 1013.52 1013.96 1014.36 1014.52 1014.68
1010.52 1009.84 1009.64 1009.56 1009.24 1009.76 1010.36 1009.48 1009.28 1008.56 1008.56 1008.52 1009.40 1010.12 1009.24 1010.12 1009.12 1009.88 1012.44 1017.64 1019.52 1016.00 1014.12 1014.32 1014.52 1014.80 1014.88 1015.04 1015.60 1016.20 1016.12 1016.12 1016.24 1016.64 1016.56 1016.48 1016.48 1016.40 1016.40 1016.20 1015.68 1015.36 1014.96 1014.68 1014.48 1014.60 1014.60 1014.48 1014.80 1014.96 1014.80 1015.00 1015.08 1015.32 1015.24 1015.00 1014.88 1014.36 1013.88 1013.56 1013.68 1014.20 1014.32
1012.88 1012.64 1011.64 1011.16 1010.24 1010.36 1010.68 1010.60 1009.04 1009.20 1008.96 1009.04 1008.72 1009.60 1010.16 1012.36 1009.44 1008.72 1011.68 1018.24 1019.56 1016.20 1014.36 1014.76 1014.80 1014.92 1015.40 1015.64 1015.48 1015.56 1016.28 1016.20 1016.40 1016.60 1016.68 1016.60 1016.60 1016.56 1016.48 1016.60 1016.44 1015.88 1015.56 1015.48 1015.32 1015.12 1015.20 1015.36 1015.60 1015.80 1015.64 1015.56 1015.80 1015.56 1015.32 1015.40 1015.84 1015.36 1014.24 1013.76 1013.76 1013.96 1014.12
1016.96 1017.00 1016.20 1015.52 1014.20 1012.76 1011.00 1009.72 1010.40 1010.76 1010.56 1010.28 1010.76 1012.28 1011.16 1013.96 1011.20 1011.12 1012.40 1016.88 1016.28 1015.52 1015.00 1015.12 1014.96 1015.24 1015.64 1015.44 1015.60 1015.76 1016.04 1016.28 1016.16 1016.12 1016.40 1016.60 1016.48 1016.64 1016.64 1016.68 1016.84 1016.96 1016.60 1016.16 1015.84 1015.52 1015.28 1015.20 1015.44 1015.76 1016.00 1016.08 1015.20 1015.44 1015.76 1015.24 1015.32 1015.32 1014.56 1013.64 1013.40 1014.00 1014.00
1015.48 1015.64 1014.72 1011.20 1009.80 1010.60 1012.08 1012.00 1011.96 1011.24 1010.80 1010.16 1010.80 1010.68 1011.76 1012.96 1011.72 1011.88 1015.60 1015.76 1017.56 1017.32 1016.36 1015.92 1015.80 1015.68 1016.04 1016.04 1015.68 1015.76 1016.08 1016.20 1016.04 1016.12 1016.20 1016.36 1016.60 1016.64 1016.64 1016.68 1016.80 1017.12 1017.12 1016.84 1016.56 1016.08 1015.68 1015.56 1015.48 1015.32 1015.24 1015.04 1015.20 1015.12 1015.04 1015.40 1015.04 1014.48 1014.00 1013.96 1013.96 1014.12 1014.16
1013.60 1012.92 1013.44 1011.96 1010.60 1011.20 1011.16 1012.04 1012.60 1011.92 1011.84 1011.48 1011.64 1012.48 1012.80 1010.80 1013.24 1014.76 1016.04 1015.28 1016.32 1017.00 1015.96 1016.00 1016.04 1015.76 1015.88 1016.00 1016.04 1015.96 1015.60 1015.04 1015.60 1016.12 1016.24 1016.12 1016.32 1016.52 1016.72 1016.88 1016.92 1017.00 1017.24 1017.20 1017.04 1016.76 1016.40 1016.08 1015.84 1015.76 1015.52 1015.40 1015.20 1015.12 1015.32 1014.88 1014.48 1014.24 1014.12 1014.20 1014.04 1013.88 1013.88
1013.40 1012.64 1012.60 1012.44 1012.20 1011.88 1012.36 1012.36 1012.40 1012.44 1012.12 1012.04 1012.32 1011.32 1012.24 1011.92 1013.04 1015.76 1016.24 1015.36 1015.96 1015.88 1015.40 1015.52 1016.04 1015.88 1016.08 1016.08 1016.04 1015.64 1015.52 1015.88 1016.04 1015.92 1016.00 1016.20 1016.36 1016.52 1016.76 1017.08 1017.32 1017.24 1017.32 1017.52 1017.48 1017.36 1017.08 1016.64 1016.52 1016.24 1016.04 1015.84 1015.48 1015.40 1015.32 1015.28 1015.12 1014.88 1014.60 1014.56 1014.64 1014.28 1014.00
1013.92 1013.60 1013.08 1012.76 1012.84 1013.12 1012.96 1012.72 1012.92 1012.68 1012.04 1012.16 1012.00 1012.40 1011.52 1011.40 1012.00 1013.12 1014.60 1014.80 1015.32 1015.12 1015.56 1015.56 1015.72 1015.76 1015.92 1016.48 1016.20 1016.12 1016.20 1016.68 1016.44 1016.40 1016.44 1016.44 1016.64 1016.84 1017.00 1017.20 1017.20 1017.40 1017.52 1017.60 1017.60 1017.56 1017.32 1017.08 1016.88 1016.64 1016.56 1016.32 1016.08 1015.96 1015.96 1015.72 1015.84 1015.60 1015.16 1014.92 1014.92 1014.80 1014.68
1014.68 1014.20 1013.80 1013.32 1013.32 1013.56 1013.52 1013.28 1013.00 1012.80 1012.64 1012.60 1012.32 1012.04 1011.84 1011.40 1012.12 1012.88 1013.52 1014.88 1015.76 1014.72 1014.68 1015.52 1015.52 1015.88 1016.48 1016.92 1017.52 1017.44 1016.96 1016.56 1016.64 1016.92 1017.00 1017.00 1017.08 1017.12 1017.28 1017.44 1017.36 1017.40 1017.56 1017.64 1017.72 1017.68 1017.56 1017.36 1017.16 1017.00 1017.00 1016.68 1016.44 1016.28 1016.28 1016.12 1016.04 1015.80 1015.52 1015.44 1014.96 1015.00 1014.92
1014.96 1014.44 1014.12 1013.96 1013.56 1013.44 1013.52 1013.56 1013.52 1013.20 1013.08 1013.64 1013.08 1012.92 1011.88 1012.36 1013.32 1013.24 1014.84 1016.72 1017.00 1015.64 1014.92 1015.60 1015.64 1016.24 1016.76 1017.52 1017.72 1017.96 1017.84 1017.28 1017.16 1017.28 1017.48 1017.60 1017.52 1017.60 1017.68 1017.76 1017.72 1017.56 1017.48 1017.64 1017.64 1017.64 1017.52 1017.36 1017.24 1017.12 1017.08 1016.96 1016.84 1016.76 1016.56 1016.56 1016.36 1016.04 1016.00 1015.72 1015.36 1015.24 1015.12
1015.48 1014.12 1014.32 1014.24 1014.32 1014.28 1014.92 1014.28 1013.20 1012.80 1012.44 1011.88 1012.08 1012.52 1012.60 1012.04 1012.08 1013.72 1016.28 1016.28 1015.28 1015.80 1015.44 1016.52 1016.68 1016.60 1017.00 1017.08 1017.20 1017.96 1018.32 1018.16 1017.80 1017.76 1017.72 1017.68 1017.68 1017.76 1017.84 1018.00 1018.16 1017.92 1017.84 1017.72 1017.72 1017.56 1017.32 1017.28 1017.36 1017.24 1017.04 1017.08 1017.20 1017.00 1016.92 1016.64 1016.52 1016.60 1016.52 1016.16 1016.00 1015.72 1015.44
1014.84 1015.36 1014.80 1014.92 1015.68 1017.48 1015.88 1012.52 1011.20 1011.84 1012.64 1013.08 1013.88 1014.08 1013.44 1012.84 1012.44 1013.12 1012.16 1015.80 1014.88 1015.68 1016.12 1016.96 1017.04 1016.64 1016.88 1017.56 1017.72 1017.44 1017.88 1018.24 1018.40 1018.16 1018.08 1017.80 1017.84 1017.80 1017.88 1017.92 1018.16 1018.28 1018.08 1018.00 1017.88 1017.80 1017.48 1017.28 1017.08 1017.00 1017.04 1017.08 1017.00 1016.76 1016.68 1016.52 1016.56 1016.72 1016.76 1016.56 1016.32 1016.24 1016.04
1014.76 1015.20 1015.96 1017.12 1018.28 1016.28 1014.72 1013.12 1013.12 1012.88 1012.72 1012.72 1013.04 1013.76 1013.48 1013.96 1013.64 1013.68 1014.00 1014.40 1014.96 1014.88 1015.24 1015.44 1015.84 1015.76 1016.28 1017.12 1017.56 1017.68 1017.76 1017.88 1018.20 1018.52 1018.56 1018.48 1018.16 1018.20 1018.16 1018.28 1018.20 1018.32 1018.24 1018.16 1018.08 1018.08 1017.72 1017.56 1017.24 1017.08 1017.12 1016.88 1016.72 1016.60 1016.52 1016.52 1016.48 1016.68 1016.60 1016.56 1016.56 1016.60 1016.56
1013.96 1015.88 1016.68 1019.48 1017.20 1015.64 1014.52 1014.48 1014.04 1013.68 1013.40 1013.76 1014.28 1015.44 1014.64 1013.88 1013.56 1013.92 1014.48 1014.72 1014.92 1014.56 1014.32 1015.40 1016.32 1016.28 1016.20 1017.08 1017.56 1017.80 1017.76 1017.60 1017.96 1018.24 1018.56 1018.68 1018.40 1018.40 1018.32 1018.28 1018.40 1018.40 1018.12 1018.24 1018.12 1018.20 1017.60 1017.44 1017.32 1017.32 1017.44 1017.12 1016.92 1016.88 1016.52 1016.56 1016.80 1016.76 1016.52 1016.44 1016.52 1016.68 1016.80
1016.48 1015.76 1015.76 1016.08 1016.36 1016.44 1016.16 1016.16 1015.84 1015.20 1015.36 1015.48 1015.20 1016.80 1016.08 1014.40 1014.00 1014.16 1014.84 1014.96 1014.48 1013.80 1014.52 1015.92 1016.16 1015.84 1015.92 1017.44 1018.04 1017.32 1017.64 1017.96 1017.64 1017.92 1018.20 1018.40 1018.52 1018.32 1018.16 1018.04 1018.12 1018.08 1018.00 1018.12 1018.04 1017.84 1017.52 1017.36 1017.32 1017.52 1017.44 1017.28 1017.20 1017.00 1016.84 1016.72 1016.76 1016.84 1016.56 1016.40 1016.44 1016.80 1016.92
1015.04 1015.84 1015.48 1015.80 1017.00 1018.16 1016.24 1015.48 1014.40 1014.04 1014.32 1014.12 1014.16 1015.56 1016.40 1015.36 1014.44 1014.04 1014.92 1015.52 1015.84 1015.24 1015.16 1015.32 1016.28 1016.92 1017.08 1017.76 1018.16 1017.60 1017.44 1017.44 1017.80 1017.76 1017.88 1017.80 1018.04 1018.20 1018.16 1018.00 1017.84 1017.84 1018.04 1018.12 1017.88 1017.80 1017.60 1017.32 1017.28 1017.44 1017.36 1017.28 1017.32 1017.24 1017.16 1016.92 1016.80 1016.72 1016.48 1016.48 1016.36 1016.52 1016.84
1015.64 1016.16 1017.00 1015.76 1016.36 1016.64 1015.48 1015.68 1015.16 1015.04 1014.68 1015.00 1015.08 1015.88 1017.48 1015.92 1015.00 1014.76 1014.92 1015.52 1016.04 1015.96 1016.56 1016.68 1016.56 1018.00 1018.60 1017.84 1016.76 1017.72 1017.60 1017.76 1017.64 1017.92 1017.96 1017.92 1017.92 1018.04 1018.04 1018.12 1018.12 1018.24 1018.40 1018.40 1018.04 1017.64 1017.52 1017.56 1017.52 1017.44 1017.28 1017.36 1017.44 1017.40 1017.36 1017.24 1016.96 1016.92 1016.84 1016.68 1016.68 1016.72 1016.64
1016.12 1015.68 1016.40 1016.24 1014.44 1016.96 1016.40 1015.68 1015.24 1014.96 1014.52 1015.44 1016.04 1018.68 1017.04 1016.12 1015.08 1015.20 1015.20 1015.84 1016.44 1016.36 1016.56 1016.76 1017.60 1017.96 1017.52 1018.24 1018.36 1016.68 1017.08 1017.88 1017.84 1018.04 1018.24 1018.24 1018.20 1018.12 1018.00 1017.84 1018.28 1018.52 1018.40 1018.16 1017.96 1017.80 1017.68 1017.76 1017.64 1017.36 1017.28 1017.44 1017.60 1017.76 1017.64 1017.36 1017.20 1017.08 1016.96 1016.96 1016.88 1016.64 1016.60
1015.44 1016.44 1015.92 1014.36 1016.80 1015.88 1015.32 1015.24 1015.08 1015.16 1015.08 1015.92 1018.20 1018.84 1017.16 1016.04 1015.36 1015.48 1015.40 1015.68 1016.12 1016.60 1017.28 1017.48 1017.84 1017.16 1017.96 1018.40 1018.20 1018.00 1017.76 1018.00 1018.08 1018.16 1018.16 1018.12 1018.12 1018.20 1018.04 1018.20 1018.52 1018.32 1018.12 1018.04 1018.16 1018.04 1017.76 1017.84 1017.60 1017.32 1017.32 1017.52 1017.72 1017.76 1017.76 1017.64 1017.52 1017.08 1016.76 1016.76 1016.76 1016.80 1016.68
1015.92 1015.68 1016.20 1015.16 1015.56 1016.24 1015.12 1015.04 1015.16 1015.12 1016.56 1018.68 1017.36 1017.48 1016.24 1016.12 1016.32 1016.00 1015.72 1015.88 1016.32 1016.72 1017.12 1017.36 1017.12 1016.72 1017.44 1017.68 1017.84 1017.92 1018.24 1018.40 1018.64 1018.56 1018.40 1018.44 1018.52 1018.36 1018.36 1018.60 1018.44 1018.16 1018.04 1018.12 1018.08 1017.92 1017.84 1017.68 1017.40 1017.36 1017.48 1017.72 1017.84 1017.84 1017.84 1017.80 1017.44 1016.92 1016.84 1016.80 1016.72 1016.80 1016.80
1015.36 1015.88 1016.52 1016.72 1017.40 1016.56 1014.88 1015.64 1015.76 1016.12 1017.32 1017.32 1016.92 1016.04 1015.88 1016.12 1016.36 1016.60 1016.72 1016.04 1016.32 1016.88 1017.56 1017.64 1017.80 1017.92 1017.80 1017.92 1018.28 1018.52 1018.48 1018.60 1018.68 1018.88 1018.88 1019.12 1019.12 1019.08 1019.04 1018.80 1018.52 1018.60 1018.68 1018.56 1018.40 1018.24 1017.88 1017.64 1017.68 1017.68 1017.72 1017.96 1018.00 1017.96 1017.96 1017.76 1017.32 1017.08 1016.96 1016.88 1016.88 1016.80 1016.76
1016.16 1016.12 1017.28 1017.12 1015.72 1015.92 1015.12 1015.48 1016.24 1015.76 1015.64 1016.16 1015.96 1016.32 1017.08 1016.72 1016.60 1016.80 1016.96 1017.16 1017.12 1017.36 1017.64 1017.84 1017.84 1018.08 1018.28 1018.40 1018.44 1018.56 1018.52 1018.52 1018.60 1018.64 1018.92 1019.08 1019.20 1019.16 1018.92 1018.80 1018.80 1018.92 1019.08 1018.96 1018.76 1018.40 1018.20 1018.12 1018.00 1017.88 1017.96 1018.16 1018.08 1018.08 1018.00 1017.52 1017.32 1017.20 1017.08 1017.00 1016.92 1016.88 1016.76
1015.52 1015.92 1016.04 1016.44 1015.52 1014.96 1015.00 1015.04 1015.72 1015.20 1015.72 1015.68 1015.88 1015.88 1016.04 1016.88 1016.76 1016.56 1016.80 1017.16 1017.52 1017.64 1017.76 1018.08 1018.32 1018.52 1018.60 1018.64 1018.48 1018.68 1018.68 1018.64 1018.72 1018.92 1019.08 1019.32 1019.52 1019.52 1019.52 1019.48 1019.32 1019.32 1019.24 1019.24 1019.00 1018.68 1018.32 1018.20 1018.12 1018.12 1018.04 1018.12 1018.04 1018.00 1017.64 1017.36 1017.36 1017.28 1017.20 1017.12 1017.04 1016.92 1016.72
1014.96 1014.56 1014.88 1014.84 1014.92 1015.20 1015.00 1015.04 1015.24 1015.72 1015.96 1015.84 1016.08 1016.24 1016.44 1016.36 1016.36 1016.76 1016.88 1017.12 1017.32 1017.72 1018.08 1018.28 1018.28 1018.60 1018.60 1018.96 1018.76 1018.72 1018.76 1018.80 1018.76 1019.00 1019.16 1019.20 1019.32 1019.44 1019.56 1019.64 1019.68 1019.80 1019.60 1019.36 1019.20 1019.04 1018.76 1018.52 1018.28 1018.08 1018.00 1017.92 1018.04 1017.80 1017.48 1017.44 1017.32 1017.20 1017.16 1017.16 1017.12 1016.96 1016.76
1016.32 1017.08 1014.52 1015.24 1015.52 1015.20 1015.12 1015.40 1015.52 1015.60 1015.84 1015.96 1016.08 1016.40 1016.44 1016.36 1016.60 1016.84 1017.12 1017.28 1017.60 1017.84 1018.08 1018.48 1018.60 1018.56 1018.68 1019.00 1019.16 1019.12 1019.28 1019.24 1019.20 1019.12 1019.16 1019.24 1019.36 1019.52 1019.72 1019.76 1019.88 1020.00 1019.96 1019.88 1019.64 1019.40 1019.20 1018.80 1018.56 1018.24 1018.12 1018.04 1017.96 1017.76 1017.64 1017.36 1017.12 1017.04 1017.00 1016.96 1016.96 1016.84 1016.68
1016.20 1015.60 1015.44 1015.12 1014.72 1014.80 1014.96 1015.08 1015.68 1016.12 1016.16 1016.16 1016.28 1016.36 1016.28 1016.40 1016.68 1016.92 1017.20 1017.60 1017.92 1018.00 1018.28 1018.44 1018.76 1018.84 1018.84 1019.12 1019.32 1019.36 1019.20 1019.32 1019.28 1019.36 1019.36 1019.36 1019.36 1019.32 1019.32 1019.40 1019.56 1019.68 1019.80 1019.84 1019.76 1019.60 1019.36 1019.00 1018.72 1018.52 1018.32 1018.12 1017.92 1017.80 1017.64 1017.48 1017.24 1017.12 1017.04 1016.88 1016.76 1016.56 1016.36
1015.32 1014.84 1014.80 1015.28 1015.52 1015.48 1015.16 1015.12 1014.96 1014.88 1015.28 1015.96 1016.40 1016.52 1016.56 1016.60 1017.04 1017.24 1017.28 1017.48 1017.64 1017.92 1018.12 1018.20 1018.56 1018.88 1018.84 1018.88 1019.08 1019.28 1019.20 1019.32 1019.40 1019.40 1019.44 1019.44 1019.48 1019.44 1019.36 1019.28 1019.32 1019.48 1019.52 1019.60 1019.60 1019.60 1019.40 1019.08 1018.88 1018.68 1018.48 1018.20 1017.96 1017.76 1017.52 1017.32 1017.20 1017.08 1016.88 1016.68 1016.52 1016.28 1016.04
1016.16 1015.96 1015.20 1014.92 1016.48 1016.80 1015.68 1015.24 1015.08 1015.00 1014.84 1015.20 1015.24 1015.64 1016.48 1016.72 1016.92 1017.24 1017.52 1017.60 1017.64 1017.76 1017.88 1018.20 1018.48 1018.96 1019.00 1019.04 1019.08 1019.32 1019.36 1019.44 1019.40 1019.48 1019.44 1019.48 1019.48 1019.44 1019.28 1019.20 1019.16 1019.16 1019.24 1019.24 1019.24 1019.24 1019.16 1019.00 1018.88 1018.76 1018.56 1018.24 1017.96 1017.64 1017.40 1017.16 1017.00 1017.00 1016.84 1016.60 1016.36 1016.08 1015.80
1015.68 1014.88 1015.08 1015.92 1015.84 1015.80 1015.36 1015.12 1014.84 1014.72 1014.60 1014.72 1015.32 1015.88 1016.20 1016.44 1016.52 1016.92 1017.48 1017.68 1017.68 1017.92 1018.04 1018.00 1018.32 1018.52 1018.64 1018.72 1018.92 1019.20 1019.20 1019.12 1019.08 1019.16 1019.48 1019.52 1019.36 1019.24 1019.12 1019.20 1019.24 1019.20 1019.08 1019.00 1018.92 1018.88 1018.76 1018.68 1018.64 1018.56 1018.40 1018.16 1017.92 1017.56 1017.32 1017.12 1016.96 1016.84 1016.72 1016.60 1016.28 1015.92 1015.68
1015.48 1015.28 1015.20 1015.40 1016.52 1016.52 1015.36 1015.04 1015.00 1014.92 1014.60 1014.76 1015.04 1015.20 1015.68 1016.16 1016.36 1016.56 1017.08 1017.40 1017.68 1017.72 1017.80 1017.88 1017.80 1018.08 1018.44 1018.68 1018.84 1019.00 1019.00 1019.08 1019.08 1019.04 1019.00 1019.08 1019.16 1019.24 1019.20 1019.20 1019.24 1019.16 1018.96 1018.80 1018.68 1018.60 1018.44 1018.36 1018.28 1018.20 1018.08 1017.88 1017.80 1017.56 1017.28 1017.04 1016.92 1016.80 1016.72 1016.56 1016.28 1015.88 1015.56
1016.00 1015.16 1015.16 1015.12 1015.32 1015.32 1015.20 1015.20 1015.12 1014.96 1014.80 1014.88 1015.16 1015.32 1015.52 1015.92 1016.20 1016.32 1016.72 1017.04 1017.36 1017.72 1017.88 1017.96 1017.92 1017.96 1018.24 1018.36 1018.48 1018.64 1018.68 1018.80 1018.84 1018.84 1018.88 1019.00 1019.20 1019.32 1019.20 1019.12 1019.08 1019.00 1018.88 1018.68 1018.52 1018.36 1018.24 1018.20 1018.08 1017.92 1017.76 1017.64 1017.52 1017.36 1017.24 1017.12 1016.92 1016.84 1016.68 1016.60 1016.36 1015.92 1015.48
Thickness
5751 5750 5757 5763 5753 5749 5759 5763 5755 5769 5798 5795 5777 5777 5789 5785 5768 5779 5788 5759 5747 5759 5761 5775 5783 5774 5775 5776 5774 5777 5777 5781 5784 5783 5789 5796 5796 5797 5798 5800 5802 5802 5803 5802 5798 5799 5803 5807 5808 5808 5808 5807 5803 5800 5800 5798 5795 5795 5795 5796 5797 5798 5797
5738 5752 5752 5754 5761 5760 5753 5751 5764 5783 5792 5792 5780 5766 5773 5773 5759 5781 5792 5751 5735 5743 5740 5761 5777 5767 5767 5768 5765 5768 5770 5771 5774 5774 5778 5785 5793 5797 5798 5800 5801 5799 5797 5793 5788 5791 5801 5805 5803 5803 5805 5804 5803 5802 5801 5799 5795 5795 5795 5796 5798 5797 5798
5730 5746 5738 5734 5753 5765 5760 5761 5775 5777 5764 5762 5761 5750 5755 5761 5757 5776 5785 5756 5744 5746 5743 5756 5764 5759 5760 5761 5759 5761 5761 5762 5765 5767 5772 5778 5785 5794 5797 5797 5794 5793 5794 5794 5789 5791 5800 5802 5796 5796 5799 5799 5801 5801 5799 5796 5793 5793 5794 5797 5799 5797 5799
5727 5732 5727 5720 5732 5753 5761 5761 5768 5775 5773 5766 5759 5758 5766 5768 5765 5769 5761 5739 5732 5740 5749 5755 5751 5751 5755 5752 5752 5754 5755 5758 5758 5760 5767 5770 5777 5785 5791 5791 5791 5793 5797 5800 5800 5796 5798 5798 5793 5793 5794 5794 5796 5796 5794 5791 5788 5788 5790 5796 5799 5798 5802
5721 5719 5725 5725 5728 5741 5746 5745 5750 5761 5773 5776 5767 5768 5778 5776 5771 5767 5748 5721 5714 5727 5743 5746 5742 5746 5751 5748 5747 5747 5750 5753 5754 5757 5761 5764 5769 5776 5782 5786 5788 5791 5794 5799 5803 5800 5796 5793 5792 5794 5794 5792 5792 5790 5789 5789 5789 5788 5791 5795 5797 5798 5803
5712 5714 5727 5733 5730 5737 5741 5741 5749 5757 5764 5764 5748 5749 5772 5783 5780 5782 5761 5717 5701 5721 5738 5741 5741 5744 5747 5749 5746 5744 5745 5747 5750 5753 5754 5757 5762 5767 5772 5777 5779 5782 5785 5791 5797 5797 5795 5792 5789 5790 5790 5790 5789 5785 5785 5790 5792 5792 5795 5798 5798 5799 5802
5710 5715 5728 5733 5730 5737 5741 5742 5752 5764 5767 5761 5743 5741 5760 5773 5782 5793 5768 5710 5693 5722 5738 5737 5740 5742 5744 5746 5744 5742 5742 5745 5748 5749 5751 5753 5755 5757 5762 5767 5770 5773 5776 5781 5785 5787 5788 5788 5785 5784 5784 5785 5785 5783 5785 5790 5792 5794 5800 5802 5800 5800 5801
5710 5716 5723 5730 5732 5733 5733 5738 5750 5758 5762 5765 5761 5758 5760 5760 5770 5781 5750 5693 5684 5717 5734 5734 5737 5738 5739 5741 5741 5740 5739 5743 5745 5744 5746 5750 5750 5751 5754 5756 5761 5766 5768 5773 5776 5777 5778 5778 5778 5779 5782 5782 5780 5779 5782 5786 5786 5791 5800 5803 5802 5801 5800
5688 5691 5696 5705 5714 5719 5723 5733 5742 5743 5747 5755 5754 5753 5751 5744 5758 5775 5747 5698 5691 5714 5727 5730 5732 5732 5733 5735 5738 5738 5737 5740 5742 5742 5743 5745 5747 5749 5750 5751 5753 5758 5762 5765 5768 5771 5772 5771 5770 5772 5773 5775 5775 5775 5779 5782 5781 5783 5793 5800 5803 5801 5801
5664 5665 5675 5690 5701 5710 5717 5724 5727 5727 5734 5740 5738 5741 5736 5727 5744 5760 5734 5698 5696 5711 5720 5722 5724 5726 5726 5729 5734 5735 5735 5736 5739 5741 5742 5743 5745 5746 5748 5749 5748 5749 5753 5756 5760 5765 5768 5768 5767 5767 5767 5769 5772 5772 5774 5778 5780 5782 5789 5797 5800 5800 5800
5665 5664 5675 5699 5712 5713 5711 5711 5713 5718 5727 5731 5732 5733 5729 5729 5739 5734 5711 5698 5696 5698 5707 5714 5717 5720 5720 5723 5729 5731 5733 5736 5737 5739 5740 5741 5743 5744 5745 5747 5746 5746 5746 5749 5753 5758 5762 5765 5766 5767 5769 5770 5772 5772 5771 5775 5781 5787 5791 5794 5796 5798 5799
5673 5675 5681 5697 5709 5708 5704 5704 5706 5711 5718 5722 5724 5724 5724 5730 5729 5707 5699 5707 5700 5694 5705 5710 5710 5716 5717 5718 5723 5726 5730 5735 5735 5736 5738 5740 5740 5740 5741 5742 5742 5744 5743 5744 5747 5750 5754 5758 5760 5763 5767 5768 5771 5772 5771 5774 5780 5787 5791 5791 5793 5797 5799
5672 5679 5682 5687 5694 5696 5697 5700 5702 5705 5712 5715 5717 5718 5721 5729 5722 5700 5696 5705 5700 5698 5707 5707 5708 5715 5714 5714 5719 5722 5727 5729 5730 5732 5734 5735 5737 5736 5737 5737 5738 5740 5739 5740 5742 5743 5748 5752 5754 5757 5760 5763 5767 5768 5768 5771 5773 5779 5785 5787 5788 5792 5795
5665 5671 5676 5680 5684 5685 5689 5692 5695 5700 5705 5708 5710 5713 5721 5729 5725 5710 5704 5703 5699 5701 5704 5702 5707 5711 5710 5710 5713 5715 5718 5719 5721 5725 5727 5728 5730 5730 5731 5732 5733 5734 5735 5735 5737 5739 5742 5745 5748 5752 5754 5756 5761 5762 5764 5765 5767 5771 5777 5781 5783 5785 5788
5659 5664 5670 5674 5676 5679 5683 5685 5689 5694 5698 5700 5702 5708 5716 5720 5717 5713 5706 5694 5689 5699 5703 5702 5704 5705 5703 5701 5699 5703 5709 5712 5715 5717 5718 5720 5722 5723 5724 5726 5727 5730 5730 5731 5732 5735 5738 5740 5743 5746 5748 5751 5755 5756 5759 5760 5763 5766 5770 5774 5779 5781 5783
5650 5661 5665 5667 5672 5675 5675 5677 5682 5687 5691 5694 5697 5702 5708 5711 5710 5704 5692 5678 5680 5693 5699 5698 5698 5698 5695 5693 5693 5694 5697 5703 5708 5709 5710 5712 5715 5716 5718 5718 5721 5724 5726 5727 5729 5731 5734 5737 5739 5741 5744 5746 5748 5750 5753 5755 5759 5762 5764 5768 5773 5776 5779
5644 5656 5659 5661 5663 5659 5660 5674 5684 5686 5688 5691 5692 5695 5701 5708 5709 5700 5684 5675 5680 5689 5690 5688 5688 5689 5689 5689 5691 5690 5689 5693 5698 5701 5704 5707 5708 5711 5713 5713 5714 5717 5720 5723 5725 5728 5731 5734 5736 5738 5740 5741 5743 5745 5748 5751 5754 5755 5758 5761 5765 5769 5773
5641 5648 5651 5651 5646 5640 5650 5672 5685 5686 5686 5686 5683 5684 5690 5695 5700 5702 5693 5684 5684 5686 5685 5681 5681 5686 5687 5685 5685 5687 5687 5688 5690 5692 5697 5700 5703 5706 5707 5708 5709 5711 5714 5717 5719 5723 5727 5730 5734 5736 5738 5739 5741 5744 5746 5748 5750 5751 5752 5756 5760 5762 5765
5644 5644 5637 5627 5625 5635 5652 5666 5675 5679 5680 5682 5679 5677 5682 5686 5687 5690 5689 5682 5682 5686 5685 5681 5681 5685 5685 5682 5680 5682 5683 5684 5686 5686 5688 5692 5696 5699 5700 5703 5704 5705 5709 5712 5714 5717 5721 5725 5729 5732 5734 5737 5740 5741 5744 5745 5747 5748 5749 5752 5755 5755 5757
5640 5634 5625 5617 5621 5638 5652 5655 5661 5667 5667 5669 5667 5660 5666 5678 5679 5678 5678 5677 5682 5688 5684 5676 5677 5682 5683 5678 5674 5676 5678 5680 5682 5682 5682 5685 5688 5692 5695 5697 5698 5700 5704 5707 5708 5712 5716 5720 5724 5725 5728 5731 5735 5737 5741 5742 5742 5743 5746 5749 5750 5750 5751
5633 5629 5630 5629 5625 5629 5637 5640 5648 5656 5657 5660 5659 5650 5654 5668 5674 5673 5671 5669 5675 5682 5679 5673 5673 5677 5677 5669 5665 5669 5674 5674 5677 5679 5679 5681 5683 5686 5690 5693 5695 5698 5699 5701 5704 5707 5712 5716 5719 5720 5723 5726 5729 5732 5735 5738 5738 5740 5743 5747 5747 5746 5746
5632 5629 5629 5629 5620 5617 5630 5638 5644 5651 5653 5656 5658 5649 5645 5655 5665 5667 5665 5662 5664 5668 5669 5669 5667 5664 5663 5659 5659 5664 5668 5669 5673 5675 5675 5678 5680 5682 5684 5687 5691 5693 5693 5695 5699 5702 5706 5710 5712 5714 5717 5720 5722 5725 5728 5731 5734 5735 5739 5742 5744 5743 5742
5627 5622 5619 5626 5623 5619 5627 5634 5639 5644 5646 5648 5648 5637 5632 5644 5656 5659 5659 5656 5655 5655 5656 5659 5658 5652 5650 5651 5655 5662 5665 5665 5667 5669 5669 5673 5675 5676 5679 5682 5684 5685 5685 5688 5693 5697 5701 5703 5705 5708 5712 5714 5715 5718 5720 5724 5727 5730 5733 5734 5736 5738 5740
5620 5618 5619 5629 5628 5620 5624 5630 5633 5639 5640 5639 5629 5616 5622 5641 5650 5651 5652 5649 5647 5649 5649 5648 5648 5645 5642 5640 5646 5659 5664 5660 5661 5663 5663 5665 5668 5670 5674 5676 5676 5677 5679 5682 5687 5691 5694 5695 5699 5703 5706 5707 5709 5710 5712 5717 5720 5723 5726 5728 5730 5733 5735
5619 5615 5616 5625 5620 5615 5623 5628 5628 5632 5632 5624 5612 5607 5620 5637 5642 5643 5646 5643 5642 5643 5642 5640 5641 5641 5639 5637 5641 5651 5655 5653 5654 5655 5655 5658 5661 5663 5666 5669 5669 5671 5675 5679 5681 5684 5687 5690 5692 5697 5700 5701 5702 5703 5706 5709 5713 5718 5721 5723 5725 5727 5729
5615 5613 5613 5618 5612 5610 5621 5625 5623 5625 5617 5607 5606 5615 5625 5632 5633 5634 5637 5638 5638 5638 5635 5634 5636 5637 5638 5638 5639 5642 5643 5643 5644 5645 5647 5650 5652 5654 5657 5660 5662 5665 5669 5672 5674 5677 5681 5684 5687 5691 5692 5693 5695 5697 5699 5702 5707 5712 5716 5718 5720 5722 5723
5610 5605 5604 5604 5601 5607 5618 5618 5613 5614 5608 5604 5612 5620 5623 5624 5625 5624 5625 5629 5631 5630 5627 5627 5628 5629 5631 5631 5631 5633 5634 5635 5636 5637 5639 5640 5641 5645 5648 5651 5655 5658 5659 5662 5665 5669 5673 5677 5680 5682 5684 5685 5688 5689 5692 5696 5701 5705 5709 5711 5713 5716 5718
5607 5600 5597 5597 5600 5608 5615 5612 5608 5611 5611 5612 5615 5616 5614 5615 5616 5617 5617 5619 5620 5619 5619 5620 5619 5620 5621 5622 5624 5626 5626 5627 5631 5631 5631 5631 5632 5635 5639 5643 5647 5649 5650 5652 5656 5660 5664 5668 5670 5673 5675 5677 5680 5682 5685 5690 5695 5699 5702 5704 5707 5709 5712
5605 5601 5599 5601 5605 5609 5611 5608 5608 5610 5611 5610 5610 5610 5610 5610 5610 5611 5612 5612 5611 5611 5611 5612 5611 5611 5612 5614 5617 5619 5618 5620 5624 5624 5625 5625 5625 5626 5629 5632 5635 5638 5641 5645 5648 5651 5655 5658 5661 5666 5669 5671 5673 5676 5681 5684 5687 5691 5695 5697 5700 5703 5706
5602 5603 5602 5602 5602 5604 5605 5605 5605 5605 5604 5603 5603 5603 5605 5606 5606 5607 5606 5605 5606 5605 5603 5603 5604 5605 5606 5606 5608 5611 5611 5612 5614 5616 5617 5618 5619 5620 5620 5622 5623 5626 5629 5634 5638 5641 5645 5648 5653 5657 5661 5664 5668 5671 5674 5678 5681 5684 5688 5691 5694 5697 5700
5591 5592 5598 5601 5598 5598 5600 5600 5599 5599 5598 5598 5598 5597 5598 5601 5601 5600 5599 5599 5598 5598 5596 5596 5596 5598 5599 5598 5599 5601 5602 5602 5605 5608 5610 5612 5613 5614 5614 5614 5616 5617 5619 5623 5627 5631 5635 5639 5643 5648 5653 5657 5660 5663 5667 5671 5674 5678 5682 5684 5688 5691 5695
5587 5588 5594 5597 5595 5596 5599 5597 5595 5594 5593 5591 5592 5592 5593 5595 5594 5593 5592 5591 5590 5590 5591 5589 5589 5590 5592 5592 5591 5593 5595 5596 5597 5600 5601 5603 5605 5607 5608 5610 5611 5612 5613 5615 5616 5620 5626 5630 5634 5639 5643 5648 5651 5656 5659 5662 5666 5670 5674 5678 5682 5686 5691
5583 5587 5590 5589 5586 5588 5592 5593 5594 5595 5593 5591 5590 5589 5588 5588 5587 5586 5586 5585 5585 5585 5585 5585 5584 5583 5584 5586 5586 5586 5587 5588 5589 5592 5594 5596 5597 5599 5602 5604 5606 5607 5608 5609 5611 5613 5617 5621 5625 5629 5633 5638 5642 5647 5651 5655 5659 5662 5666 5671 5677 5681 5686
5575 5582 5587 5586 5580 5579 5584 5588 5590 5592 5593 5592 5591 5588 5585 5583 5582 5581 5580 5580 5580 5580 5580 5580 5579 5576 5577 5579 5579 5578 5579 5581 5582 5584 5586 5588 5589 5592 5594 5597 5600 5601 5603 5604 5606 5608 5610 5613 5616 5620 5624 5628 5632 5637 5642 5647 5650 5654 5659 5664 5669 5675 5680
5575 5579 5580 5578 5574 5574 5581 5585 5586 5588 5591 5590 5588 5586 5582 5580 5580 5579 5575 5574 5575 5575 5575 5576 5575 5573 5573 5573 5572 5572 5574 5575 5577 5578 5579 5581 5583 5585 5587 5589 5591 5593 5596 5598 5601 5603 5606 5608 5610 5612 5616 5620 5623 5628 5632 5637 5641 5646 5651 5655 5661 5668 5673
5571 5574 5574 5572 5569 5570 5577 5580 5581 5583 5586 5586 5585 5583 5580 5578 5578 5576 5573 5572 5572 5571 5571 5572 5572 5571 5570 5568 5568 5568 5568 5569 5571 5572 5573 5575 5576 5576 5578 5580 5582 5584 5588 5591 5594 5597 5600 5602 5604 5607 5610 5612 5615 5618 5622 5627 5631 5636 5640 5645 5652 5659 5665
5562 5566 5570 5570 5567 5569 5573 5575 5576 5578 5580 5580 5580 5579 5577 5575 5574 5573 5571 5569 5568 5567 5567 5568 5568 5568 5567 5566 5566 5566 5565 5565 5567 5567 5568 5568 5568 5569 5570 5572 5574 5577 5580 5583 5586 5590 5592 5594 5597 5600 5603 5606 5608 5610 5613 5617 5621 5625 5631 5636 5643 5649 5655